Hourly Data Report for March 06, 2003

TORONTO CITY
ONTARIO

43°40'00.000" N
79°24'00.000" W
112.50 m
6158355
71508
XTO

Download Data

Hourly Data (March 2003)
Hourly Data Report for March 6, 2003
TIME
LST
Temp Definition
°C
Dew Point Definition
°C
Rel Hum Definition
%
Precip. Amount Definition
mm

Wind Dir Definition
10's deg

Wind Spd Definition
km/h
Visibility Definition
km
Stn Press Definition
kPa
Hmdx Definition


Wind Chill Definition


Weather Definition


00:00 -8.3 -12.5 72   LegendMM LegendMM LegendMM 100.12     LegendNANA
01:00 -8.5 -13.1 69   LegendMM LegendMM LegendMM 100.13     LegendNANA
02:00 -8.6 -13.7 67   LegendMM LegendMM LegendMM 100.14     LegendNANA
03:00 -8.9 -14.0 66   LegendMM LegendMM LegendMM 100.10     LegendNANA
04:00 -8.9 -14.0 66   LegendMM LegendMM LegendMM 100.04     LegendNANA
05:00 -8.8 -14.1 65   LegendMM LegendMM LegendMM 100.07     LegendNANA
06:00 -9.3 -14.0 69   LegendMM LegendMM LegendMM 100.11     LegendNANA
07:00 -9.2 -13.4 71   LegendMM LegendMM LegendMM 100.12     LegendNANA
08:00 -8.4 -12.8 71   LegendMM LegendMM LegendMM 100.18     LegendNANA
09:00 -7.6 -12.6 67   LegendMM LegendMM LegendMM 100.23     LegendNANA
10:00 -6.4 -13.2 58   LegendMM LegendMM LegendMM 100.25     LegendNANA
11:00 -6.0 -14.1 53   LegendMM LegendMM LegendMM 100.29     LegendNANA
12:00 -5.1 -14.5 48   LegendMM LegendMM LegendMM 100.30     LegendNANA
13:00 -4.3 -15.1 43   LegendMM LegendMM LegendMM 100.35     LegendNANA
14:00 -4.1 -16.1 39   LegendMM LegendMM LegendMM 100.38     LegendNANA
15:00 -4.7 -14.1 48   LegendMM LegendMM LegendMM 100.43     LegendNANA
16:00 -4.9 -13.8 50   LegendMM LegendMM LegendMM 100.51     LegendNANA
17:00 -4.9 -13.6 50   LegendMM LegendMM LegendMM 100.60     LegendNANA
18:00 -5.4 -13.8 52   LegendMM LegendMM LegendMM 100.69     LegendNANA
19:00 -5.7 -13.2 55   LegendMM LegendMM LegendMM 100.79     LegendNANA
20:00 -5.8 -13.5 55   LegendMM LegendMM LegendMM 100.81     LegendNANA
21:00 -6.0 -13.0 58   LegendMM LegendMM LegendMM 100.84     LegendNANA
22:00 -5.9 -12.7 59   LegendMM LegendMM LegendMM 100.88     LegendNANA
23:00 -5.3 -11.9 60   LegendMM LegendMM LegendMM 100.91     LegendNANA

Notes on Data Quality.

Legend

  • E = Estimated
  • M = Missing
  • NA = Not Available*
  • [empty] = Indicates an unobserved value
Date modified: